• In Belgien
  • Länderverzeichnis
  • Für 7 Tage
  • Wassertemperatur
  • Satellitenkarten
  • Wetterkarte
  • Widgets
  • user-avatar
    Anmelden

    Stündliche Wetter Rudzie

    Heute, 16 August, Donnerstag

    Zeit Temperatur Niederschläge Wind Luftdruck Luftfeuchtigkeit
    00:00 +15°C° 0 mm 2 m/S 741 mmHg 97%
    01:00 +14°C° 0 mm 2 m/S 741 mmHg 98%
    02:00 +14°C° 0 mm 2 m/S 741 mmHg 98%
    03:00 +14°C° 0 mm 2 m/S 741 mmHg 98%
    04:00 +14°C° 0 mm 2 m/S 742 mmHg 98%
    05:00 +15°C° 0 mm 2 m/S 742 mmHg 94%
    06:00 +16°C° 0 mm 1 m/S 742 mmHg 91%
    07:00 +18°C° 0 mm 1 m/S 743 mmHg 87%
    08:00 +20°C° 0 mm 1 m/S 743 mmHg 81%
    09:00 +21°C° 0 mm 1 m/S 743 mmHg 74%
    10:00 +22°C° 0 mm 1 m/S 743 mmHg 68%
    11:00 +23°C° 0,1 mm 1 m/S 743 mmHg 65%
    12:00 +23°C° 0,1 mm 1 m/S 743 mmHg 62%
    13:00 +24°C° 0,1 mm 1 m/S 743 mmHg 59%
    14:00 +24°C° 0 mm 1 m/S 743 mmHg 59%
    15:00 +24°C° 0 mm 1 m/S 743 mmHg 60%
    16:00 +24°C° 0 mm 1 m/S 742 mmHg 60%
    17:00 +22°C° 0 mm 1 m/S 742 mmHg 66%
    18:00 +21°C° 0 mm 1 m/S 742 mmHg 72%
    19:00 +19°C° 0 mm 1 m/S 742 mmHg 78%
    20:00 +19°C° 0 mm 1 m/S 742 mmHg 81%
    21:00 +18°C° 0 mm 1 m/S 742 mmHg 83%
    22:00 +16°C° 0 mm 1 m/S 743 mmHg 86%
    23:00 +16°C° 0 mm 1 m/S 743 mmHg 87%

    Morgen, 17 August, Freitag

    Zeit Temperatur Niederschläge Wind Luftdruck Luftfeuchtigkeit
    00:00 +16°C° 0 mm 1 m/S 742 mmHg 89%
    01:00 +15°C° 0 mm 1 m/S 742 mmHg 90%
    02:00 +15°C° 0 mm 1 m/S 742 mmHg 91%
    03:00 +15°C° 0 mm 1 m/S 742 mmHg 92%
    04:00 +15°C° 0 mm 1 m/S 742 mmHg 92%
    05:00 +16°C° 0 mm 2 m/S 743 mmHg 88%
    06:00 +17°C° 0 mm 2 m/S 743 mmHg 84%
    07:00 +19°C° 0 mm 2 m/S 743 mmHg 80%
    08:00 +20°C° 0 mm 2 m/S 743 mmHg 74%
    09:00 +23°C° 0 mm 2 m/S 743 mmHg 69%
    10:00 +24°C° 0 mm 2 m/S 743 mmHg 63%
    11:00 +25°C° 0 mm 2 m/S 743 mmHg 60%
    12:00 +25°C° 0 mm 2 m/S 742 mmHg 58%
    13:00 +26°C° 0 mm 2 m/S 742 mmHg 55%
    14:00 +26°C° 0 mm 2 m/S 742 mmHg 56%
    15:00 +26°C° 0 mm 1 m/S 742 mmHg 56%
    16:00 +26°C° 0 mm 1 m/S 741 mmHg 57%
    17:00 +24°C° 0 mm 1 m/S 741 mmHg 63%
    18:00 +22°C° 0 mm 1 m/S 741 mmHg 68%
    19:00 +20°C° 0 mm 1 m/S 741 mmHg 74%
    20:00 +20°C° 0 mm 1 m/S 741 mmHg 76%
    21:00 +19°C° 0 mm 1 m/S 741 mmHg 79%
    22:00 +18°C° 0 mm 1 m/S 741 mmHg 81%
    23:00 +18°C° 0 mm 1 m/S 741 mmHg 82%

    übermorgen, 18 August, Samstag

    Zeit Temperatur Niederschläge Wind Luftdruck Luftfeuchtigkeit
    00:00 +18°C° 0 mm 1 m/S 741 mmHg 83%
    01:00 +16°C° 0 mm 1 m/S 741 mmHg 84%
    02:00 +16°C° 0 mm 1 m/S 741 mmHg 85%
    03:00 +16°C° 0 mm 1 m/S 741 mmHg 86%
    04:00 +16°C° 0 mm 1 m/S 741 mmHg 87%
    05:00 +18°C° 0 mm 1 m/S 741 mmHg 83%
    06:00 +20°C° 0 mm 1 m/S 741 mmHg 79%
    07:00 +21°C° 0 mm 1 m/S 741 mmHg 75%
    08:00 +23°C° 0 mm 1 m/S 742 mmHg 69%
    09:00 +24°C° 0 mm 1 m/S 742 mmHg 62%
    10:00 +26°C° 0 mm 1 m/S 742 mmHg 56%
    11:00 +26°C° 0 mm 1 m/S 742 mmHg 54%
    12:00 +27°C° 0 mm 1 m/S 741 mmHg 51%
    13:00 +27°C° 0 mm 1 m/S 741 mmHg 49%
    14:00 +27°C° 0 mm 1 m/S 741 mmHg 52%
    15:00 +26°C° 0 mm 1 m/S 741 mmHg 56%
    16:00 +26°C° 0 mm 1 m/S 741 mmHg 59%
    17:00 +24°C° 0,1 mm 1 m/S 741 mmHg 65%
    18:00 +22°C° 0,1 mm 1 m/S 741 mmHg 71%
    19:00 +21°C° 0,1 mm 1 m/S 741 mmHg 77%
    20:00 +20°C° 0,3 mm 1 m/S 741 mmHg 81%
    21:00 +19°C° 0,3 mm 1 m/S 741 mmHg 85%
    22:00 +18°C° 0,3 mm 2 m/S 742 mmHg 89%
    23:00 +17°C° 0,2 mm 2 m/S 742 mmHg 92%

    19 August, Sonntag

    Zeit Temperatur Niederschläge Wind Luftdruck Luftfeuchtigkeit
    00:00 +17°C° 0,2 mm 2 m/S 742 mmHg 94%
    01:00 +16°C° 0,2 mm 2 m/S 742 mmHg 96%
    02:00 +15°C° 0 mm 2 m/S 742 mmHg 96%
    03:00 +15°C° 0 mm 2 m/S 742 mmHg 97%
    04:00 +14°C° 0 mm 2 m/S 742 mmHg 97%
    05:00 +15°C° 0 mm 2 m/S 742 mmHg 93%
    06:00 +16°C° 0 mm 2 m/S 742 mmHg 89%
    07:00 +17°C° 0 mm 3 m/S 742 mmHg 85%
    08:00 +18°C° 0 mm 3 m/S 742 mmHg 78%
    09:00 +19°C° 0 mm 3 m/S 743 mmHg 70%
    10:00 +21°C° 0 mm 3 m/S 743 mmHg 62%
    11:00 +21°C° 0 mm 3 m/S 742 mmHg 62%
    12:00 +22°C° 0 mm 4 m/S 742 mmHg 62%
    13:00 +22°C° 0 mm 4 m/S 742 mmHg 62%
    14:00 +22°C° 0 mm 4 m/S 742 mmHg 64%
    15:00 +22°C° 0 mm 4 m/S 742 mmHg 66%
    16:00 +22°C° 0 mm 4 m/S 742 mmHg 68%
    17:00 +20°C° 0 mm 3 m/S 742 mmHg 74%
    18:00 +19°C° 0 mm 2 m/S 742 mmHg 80%
    19:00 +18°C° 0 mm 2 m/S 742 mmHg 86%
    20:00 +17°C° 0 mm 2 m/S 742 mmHg 89%
    21:00 +16°C° 0 mm 2 m/S 742 mmHg 92%
    22:00 +15°C° 0 mm 2 m/S 742 mmHg 94%
    23:00 +15°C° 0 mm 2 m/S 742 mmHg 95%

    20 August, Montag

    Zeit Temperatur Niederschläge Wind Luftdruck Luftfeuchtigkeit
    00:00 +15°C° 0 mm 2 m/S 742 mmHg 95%
    01:00 +14°C° 0 mm 2 m/S 742 mmHg 96%
    02:00 +14°C° 0 mm 1 m/S 742 mmHg 96%
    03:00 +14°C° 0 mm 1 m/S 742 mmHg 96%
    04:00 +14°C° 0 mm 1 m/S 742 mmHg 96%
    05:00 +15°C° 0 mm 2 m/S 742 mmHg 92%
    06:00 +16°C° 0 mm 2 m/S 742 mmHg 89%
    07:00 +18°C° 0 mm 2 m/S 742 mmHg 85%
    08:00 +19°C° 0 mm 2 m/S 742 mmHg 78%
    09:00 +20°C° 0 mm 2 m/S 742 mmHg 72%
    10:00 +23°C° 0 mm 2 m/S 742 mmHg 65%
    11:00 +23°C° 0 mm 2 m/S 742 mmHg 63%
    12:00 +24°C° 0 mm 2 m/S 742 mmHg 61%
    13:00 +25°C° 0 mm 2 m/S 742 mmHg 58%
    14:00 +25°C° 0,1 mm 2 m/S 741 mmHg 59%
    15:00 +25°C° 0,1 mm 2 m/S 741 mmHg 61%
    16:00 +25°C° 0,1 mm 1 m/S 741 mmHg 62%
    17:00 +23°C° 0,2 mm 1 m/S 741 mmHg 67%
    18:00 +22°C° 0,2 mm 1 m/S 741 mmHg 73%
    19:00 +21°C° 0,2 mm 1 m/S 740 mmHg 78%
    20:00 +19°C° 0,2 mm 2 m/S 740 mmHg 81%
    21:00 +19°C° 0,2 mm 2 m/S 740 mmHg 83%
    22:00 +18°C° 0,2 mm 3 m/S 740 mmHg 85%
    23:00 +18°C° 0,2 mm 3 m/S 740 mmHg 86%

    21 August, Dienstag

    Zeit Temperatur Niederschläge Wind Luftdruck Luftfeuchtigkeit
    00:00 +17°C° 0,2 mm 3 m/S 740 mmHg 86%
    01:00 +17°C° 0,2 mm 3 m/S 740 mmHg 86%
    02:00 +17°C° 0,1 mm 3 m/S 740 mmHg 87%
    03:00 +17°C° 0,1 mm 3 m/S 739 mmHg 87%
    04:00 +17°C° 0,1 mm 3 m/S 739 mmHg 87%
    05:00 +17°C° 0,1 mm 3 m/S 739 mmHg 87%
    06:00 +18°C° 0,1 mm 3 m/S 740 mmHg 86%
    07:00 +18°C° 0,1 mm 2 m/S 740 mmHg 85%
    08:00 +20°C° 0 mm 3 m/S 740 mmHg 80%
    09:00 +22°C° 0 mm 3 m/S 740 mmHg 74%
    10:00 +24°C° 0 mm 3 m/S 740 mmHg 68%
    11:00 +25°C° 0,2 mm 3 m/S 740 mmHg 68%
    12:00 +25°C° 0,2 mm 4 m/S 740 mmHg 68%
    13:00 +25°C° 0,2 mm 4 m/S 740 mmHg 68%
    14:00 +25°C° 0,2 mm 3 m/S 740 mmHg 69%
    15:00 +25°C° 0,2 mm 3 m/S 740 mmHg 71%
    16:00 +24°C° 0,2 mm 3 m/S 739 mmHg 72%
    17:00 +22°C° 0 mm 3 m/S 739 mmHg 78%
    18:00 +20°C° 0 mm 2 m/S 739 mmHg 84%
    19:00 +20°C° 0 mm 1 m/S 739 mmHg 90%
    20:00 +19°C° 0 mm 1 m/S 739 mmHg 91%
    21:00 +19°C° 0 mm 1 m/S 739 mmHg 92%
    22:00 +18°C° 0 mm 1 m/S 739 mmHg 93%
    23:00 +18°C° 0 mm 1 m/S 739 mmHg 93%
    Mehr zeigen